Location: Newark
(48.3983°N, 16.0611°E)
Time: 01:00:38
(UTC+00:00)

ISS - Pass Details

Date: 23 January 2020
Orbit: 416 x 422 km, 51.6° (Epoch: 21 February)

Event Time Altitude Azimuth Distance (km) Brightness Sun altitude
Rises 18:08:14 0° 249° (WSW) 2,373 1.3 -24.4°
Reaches altitude 10° 18:10:20 10° 250° (WSW) 1,509 0.0 -24.7°
Enters shadow 18:12:22 34° 253° (WSW) 722 -2.1 -25.1°
